Year,Month,Day,Hour,Minute,Value (Times are PST for temperature in C)
2008,06,15,00,00,11.50
2008,06,15,00,01,11.50
2008,06,15,00,02,11.50
2008,06,15,00,03,11.50
2008,06,15,00,04,11.50
2008,06,15,00,05,11.50
2008,06,15,00,06,11.50
2008,06,15,00,07,11.50
2008,06,15,00,08,11.50
2008,06,15,00,09,11.40
2008,06,15,00,10,11.40
2008,06,15,00,11,11.30
2008,06,15,00,12,11.30
2008,06,15,00,13,11.30
2008,06,15,00,14,11.30
2008,06,15,00,15,11.20
2008,06,15,00,16,11.20
2008,06,15,00,17,11.20
2008,06,15,00,18,11.20
2008,06,15,00,19,11.10
2008,06,15,00,20,11.10
2008,06,15,00,21,11.10
2008,06,15,00,22,11.10
2008,06,15,00,23,11.10
2008,06,15,00,24,11.10
2008,06,15,00,25,11.10
2008,06,15,00,26,11.10
2008,06,15,00,27,11.00
2008,06,15,00,28,11.00
2008,06,15,00,29,11.00
2008,06,15,00,30,11.00
2008,06,15,00,31,10.90
2008,06,15,00,32,10.90
2008,06,15,00,33,10.90
2008,06,15,00,34,10.90
2008,06,15,00,35,10.90
2008,06,15,00,36,10.90
2008,06,15,00,37,10.80
2008,06,15,00,38,10.80
2008,06,15,00,39,10.80
2008,06,15,00,40,10.80
2008,06,15,00,41,10.80
2008,06,15,00,42,10.80
2008,06,15,00,43,10.80
2008,06,15,00,44,10.80
2008,06,15,00,45,10.80
2008,06,15,00,46,10.80
2008,06,15,00,47,10.80
2008,06,15,00,48,10.80
2008,06,15,00,49,10.80
2008,06,15,00,50,10.80
2008,06,15,00,51,10.80
2008,06,15,00,52,10.80
2008,06,15,00,53,10.80
2008,06,15,00,54,10.80
2008,06,15,00,55,10.80
2008,06,15,00,56,10.80
2008,06,15,00,57,10.80
2008,06,15,00,58,10.80
2008,06,15,00,59,10.80
2008,06,15,01,00,10.80
2008,06,15,01,01,10.70
2008,06,15,01,02,10.70
2008,06,15,01,03,10.70
2008,06,15,01,04,10.70
2008,06,15,01,05,10.60
2008,06,15,01,06,10.60
2008,06,15,01,07,10.50
2008,06,15,01,08,10.50
2008,06,15,01,09,10.40
2008,06,15,01,10,10.40
2008,06,15,01,11,10.40
2008,06,15,01,12,10.40
2008,06,15,01,13,10.40
2008,06,15,01,14,10.30
2008,06,15,01,15,10.30
2008,06,15,01,16,10.30
2008,06,15,01,17,10.30
2008,06,15,01,18,10.30
2008,06,15,01,19,10.30
2008,06,15,01,20,10.20
2008,06,15,01,21,10.20
2008,06,15,01,22,10.20
2008,06,15,01,23,10.10
2008,06,15,01,24,10.10
2008,06,15,01,25,10.10
2008,06,15,01,26,10.00
2008,06,15,01,27,10.00
2008,06,15,01,28,9.90
2008,06,15,01,29,9.90
2008,06,15,01,30,9.90
2008,06,15,01,31,9.90
2008,06,15,01,32,9.80
2008,06,15,01,33,9.80
2008,06,15,01,34,9.80
2008,06,15,01,35,9.80
2008,06,15,01,36,9.80
2008,06,15,01,37,9.80
2008,06,15,01,38,9.80
2008,06,15,01,39,9.70
2008,06,15,01,40,9.70
2008,06,15,01,41,9.70
2008,06,15,01,42,9.70
2008,06,15,01,43,9.70
2008,06,15,01,44,9.60
2008,06,15,01,45,9.60
2008,06,15,01,46,9.60
2008,06,15,01,47,9.60
2008,06,15,01,48,9.50
2008,06,15,01,49,9.50
2008,06,15,01,50,9.40
2008,06,15,01,51,9.40
2008,06,15,01,52,9.40
2008,06,15,01,53,9.40
2008,06,15,01,54,9.40
2008,06,15,01,55,9.40
2008,06,15,01,56,9.40
2008,06,15,01,57,9.40
2008,06,15,01,58,9.40
2008,06,15,01,59,9.50
2008,06,15,02,00,9.40
2008,06,15,02,01,9.40
2008,06,15,02,02,9.40
2008,06,15,02,03,9.40
2008,06,15,02,04,9.40
2008,06,15,02,05,9.40
2008,06,15,02,06,9.40
2008,06,15,02,07,9.40
2008,06,15,02,08,9.40
2008,06,15,02,09,9.40
2008,06,15,02,10,9.40
2008,06,15,02,11,9.40
2008,06,15,02,12,9.40
2008,06,15,02,13,9.40
2008,06,15,02,14,9.40
2008,06,15,02,15,9.40
2008,06,15,02,16,9.40
2008,06,15,02,17,9.40
2008,06,15,02,18,9.50
2008,06,15,02,19,9.50
2008,06,15,02,20,9.50
2008,06,15,02,21,9.50
2008,06,15,02,22,9.60
2008,06,15,02,23,9.60
2008,06,15,02,24,9.60
2008,06,15,02,25,9.50
2008,06,15,02,26,9.50
2008,06,15,02,27,9.50
2008,06,15,02,28,9.50
2008,06,15,02,29,9.50
2008,06,15,02,30,9.40
2008,06,15,02,31,9.40
2008,06,15,02,32,9.40
2008,06,15,02,33,9.40
2008,06,15,02,34,9.40
2008,06,15,02,35,9.40
2008,06,15,02,36,9.30
2008,06,15,02,37,9.30
2008,06,15,02,38,9.30
2008,06,15,02,39,9.30
2008,06,15,02,40,9.30
2008,06,15,02,41,9.20
2008,06,15,02,42,9.20
2008,06,15,02,43,9.20
2008,06,15,02,44,9.20
2008,06,15,02,45,9.20
2008,06,15,02,46,9.20
2008,06,15,02,47,9.20
2008,06,15,02,48,9.30
2008,06,15,02,49,9.30
2008,06,15,02,50,9.30
2008,06,15,02,51,9.30
2008,06,15,02,52,9.30
2008,06,15,02,53,9.30
2008,06,15,02,54,9.30
2008,06,15,02,55,9.30
2008,06,15,02,56,9.30
2008,06,15,02,57,9.40
2008,06,15,02,58,9.30
2008,06,15,02,59,9.30
2008,06,15,03,00,9.30
2008,06,15,03,01,9.30
2008,06,15,03,02,9.30
2008,06,15,03,03,9.30
2008,06,15,03,04,9.20
2008,06,15,03,05,9.20
2008,06,15,03,06,9.20
2008,06,15,03,07,9.10
2008,06,15,03,08,9.10
2008,06,15,03,09,9.10
2008,06,15,03,10,9.10
2008,06,15,03,11,9.10
2008,06,15,03,12,9.10
2008,06,15,03,13,9.00
2008,06,15,03,14,9.00
2008,06,15,03,15,9.00
2008,06,15,03,16,8.90
2008,06,15,03,17,8.90
2008,06,15,03,18,8.90
2008,06,15,03,19,8.80
2008,06,15,03,20,8.80
2008,06,15,03,21,8.80
2008,06,15,03,22,8.80
2008,06,15,03,23,8.70
2008,06,15,03,24,8.70
2008,06,15,03,25,8.70
2008,06,15,03,26,8.60
2008,06,15,03,27,8.60
2008,06,15,03,28,8.50
2008,06,15,03,29,8.50
2008,06,15,03,30,8.40
2008,06,15,03,31,8.40
2008,06,15,03,32,8.40
2008,06,15,03,33,8.40
2008,06,15,03,34,8.30
2008,06,15,03,35,8.30
2008,06,15,03,36,8.30
2008,06,15,03,37,8.30
2008,06,15,03,38,8.30
2008,06,15,03,39,8.30
2008,06,15,03,40,8.30
2008,06,15,03,41,8.30
2008,06,15,03,42,8.20
2008,06,15,03,43,8.20
2008,06,15,03,44,8.20
2008,06,15,03,45,8.10
2008,06,15,03,46,8.10
2008,06,15,03,47,8.10
2008,06,15,03,48,8.10
2008,06,15,03,49,8.00
2008,06,15,03,50,8.00
2008,06,15,03,51,7.90
2008,06,15,03,52,7.90
2008,06,15,03,53,7.90
2008,06,15,03,54,7.90
2008,06,15,03,55,7.80
2008,06,15,03,56,7.80
2008,06,15,03,57,7.80
2008,06,15,03,58,7.80
2008,06,15,03,59,7.80
2008,06,15,04,00,7.80
2008,06,15,04,01,7.80
2008,06,15,04,02,7.70
2008,06,15,04,03,7.70
2008,06,15,04,04,7.70
2008,06,15,04,05,7.70
2008,06,15,04,06,7.70
2008,06,15,04,07,7.70
2008,06,15,04,08,7.70
2008,06,15,04,09,7.70
2008,06,15,04,10,7.60
2008,06,15,04,11,7.60
2008,06,15,04,12,7.60
2008,06,15,04,13,7.60
2008,06,15,04,14,7.50
2008,06,15,04,15,7.50
2008,06,15,04,16,7.50
2008,06,15,04,17,7.40
2008,06,15,04,18,7.40
2008,06,15,04,19,7.40
2008,06,15,04,20,7.40
2008,06,15,04,21,7.40
2008,06,15,04,22,7.30
2008,06,15,04,23,7.30
2008,06,15,04,29,7.40
2008,06,15,04,30,7.30
2008,06,15,04,31,7.30
2008,06,15,04,32,7.30
2008,06,15,04,33,7.30
2008,06,15,04,34,7.30
2008,06,15,04,35,7.30
2008,06,15,04,36,7.30
2008,06,15,04,37,7.30
2008,06,15,04,38,7.30
2008,06,15,04,39,7.30
2008,06,15,04,40,7.20
2008,06,15,04,41,7.20
2008,06,15,04,42,7.20
2008,06,15,04,43,7.20
2008,06,15,04,44,7.20
2008,06,15,04,45,7.20
2008,06,15,04,46,7.20
2008,06,15,04,47,7.20
2008,06,15,04,48,7.20
2008,06,15,04,49,7.20
2008,06,15,04,50,7.20
2008,06,15,04,51,7.20
2008,06,15,04,52,7.20
2008,06,15,04,53,7.20
2008,06,15,04,54,7.20
2008,06,15,04,55,7.20
2008,06,15,04,56,7.20
2008,06,15,04,57,7.20
2008,06,15,04,58,7.20
2008,06,15,04,59,7.20
2008,06,15,05,00,7.20
2008,06,15,05,01,7.20
2008,06,15,05,02,7.10
2008,06,15,05,03,7.10
2008,06,15,05,04,7.10
2008,06,15,05,05,7.10
2008,06,15,05,06,7.10
2008,06,15,05,07,7.10
2008,06,15,05,08,7.10
2008,06,15,05,09,7.10
2008,06,15,05,10,7.10
2008,06,15,05,11,7.00
2008,06,15,05,12,7.00
2008,06,15,05,13,6.90
2008,06,15,05,14,6.90
2008,06,15,05,15,6.90
2008,06,15,05,16,6.90
2008,06,15,05,17,6.80
2008,06,15,05,18,6.80
2008,06,15,05,19,6.80
2008,06,15,05,20,6.80
2008,06,15,05,21,6.80
2008,06,15,05,22,6.80
2008,06,15,05,23,6.80
2008,06,15,05,24,6.80
2008,06,15,05,25,6.80
2008,06,15,05,26,6.80
2008,06,15,05,27,6.80
2008,06,15,05,28,6.80
2008,06,15,05,29,6.80
2008,06,15,05,30,6.80
2008,06,15,05,31,6.90
2008,06,15,05,32,6.90
2008,06,15,05,33,6.90
2008,06,15,05,34,6.90
2008,06,15,05,35,6.90
2008,06,15,05,36,6.90
2008,06,15,05,37,6.90
2008,06,15,05,38,6.90
2008,06,15,05,39,6.90
2008,06,15,05,40,6.90
2008,06,15,05,41,7.00
2008,06,15,05,42,7.00
2008,06,15,05,43,7.00
2008,06,15,05,44,7.00
2008,06,15,05,45,7.10
2008,06,15,05,46,7.10
2008,06,15,05,47,7.10
2008,06,15,05,48,7.20
2008,06,15,05,49,7.20
2008,06,15,05,50,7.20
2008,06,15,05,51,7.30
2008,06,15,05,52,7.30
2008,06,15,05,53,7.40
2008,06,15,05,54,7.40
2008,06,15,05,55,7.50
2008,06,15,05,56,7.60
2008,06,15,05,57,7.60
2008,06,15,05,58,7.70
2008,06,15,05,59,7.70
2008,06,15,06,00,7.70
2008,06,15,06,01,7.70
2008,06,15,06,02,7.80
2008,06,15,06,03,7.80
2008,06,15,06,04,7.80
2008,06,15,06,05,7.90
2008,06,15,06,06,7.90
2008,06,15,06,07,7.90
2008,06,15,06,08,7.90
2008,06,15,06,09,8.00
2008,06,15,06,10,8.00
2008,06,15,06,11,8.00
2008,06,15,06,12,8.10
2008,06,15,06,13,8.10
2008,06,15,06,14,8.10
2008,06,15,06,15,8.20
2008,06,15,06,16,8.20
2008,06,15,06,17,8.30
2008,06,15,06,18,8.30
2008,06,15,06,19,8.40
2008,06,15,06,20,8.40
2008,06,15,06,21,8.50
2008,06,15,06,22,8.60
2008,06,15,06,23,8.60
2008,06,15,06,24,8.70
2008,06,15,06,25,8.80
2008,06,15,06,26,8.80
2008,06,15,06,27,8.90
2008,06,15,06,28,9.00
2008,06,15,06,29,9.00
2008,06,15,06,30,9.10
2008,06,15,06,31,9.20
2008,06,15,06,32,9.20
2008,06,15,06,33,9.30
2008,06,15,06,34,9.30
2008,06,15,06,35,9.40
2008,06,15,06,36,9.50
2008,06,15,06,37,9.50
2008,06,15,06,38,9.60
2008,06,15,06,39,9.70
2008,06,15,06,40,9.70
2008,06,15,06,41,9.80
2008,06,15,06,42,9.80
2008,06,15,06,43,9.90
2008,06,15,06,44,9.90
2008,06,15,06,45,10.00
2008,06,15,06,46,10.10
2008,06,15,06,47,10.10
2008,06,15,06,48,10.20
2008,06,15,06,49,10.30
2008,06,15,06,50,10.40
2008,06,15,06,51,10.40
2008,06,15,06,52,10.50
2008,06,15,06,53,10.60
2008,06,15,06,54,10.70
2008,06,15,06,55,10.70
2008,06,15,06,56,10.80
2008,06,15,06,57,10.90
2008,06,15,06,58,11.00
2008,06,15,06,59,11.10
2008,06,15,07,00,11.20
2008,06,15,07,01,11.30
2008,06,15,07,02,11.40
2008,06,15,07,03,11.60
2008,06,15,07,04,11.70
2008,06,15,07,05,11.90
2008,06,15,07,06,12.00
2008,06,15,07,07,12.10
2008,06,15,07,08,12.20
2008,06,15,07,09,12.30
2008,06,15,07,10,12.30
2008,06,15,07,11,12.40
2008,06,15,07,12,12.40
2008,06,15,07,13,12.30
2008,06,15,07,14,12.30
2008,06,15,07,15,12.20
2008,06,15,07,16,12.20
2008,06,15,07,17,12.30
2008,06,15,07,18,12.30
2008,06,15,07,19,12.30
2008,06,15,07,20,12.30
2008,06,15,07,21,12.30
2008,06,15,07,22,12.30
2008,06,15,07,23,12.30
2008,06,15,07,24,12.40
2008,06,15,07,25,12.40
2008,06,15,07,26,12.50
2008,06,15,07,27,12.50
2008,06,15,07,28,12.50
2008,06,15,07,29,12.50
2008,06,15,07,30,12.50
2008,06,15,07,31,12.50
2008,06,15,07,32,12.40
2008,06,15,07,33,12.40
2008,06,15,07,34,12.40
2008,06,15,07,35,12.40
2008,06,15,07,36,12.40
2008,06,15,07,37,12.40
2008,06,15,07,38,12.40
2008,06,15,07,39,12.30
2008,06,15,07,40,12.30
2008,06,15,07,41,12.30
2008,06,15,07,42,12.40
2008,06,15,07,43,12.40
2008,06,15,07,44,12.40
2008,06,15,07,45,12.40
2008,06,15,07,46,12.50
2008,06,15,07,47,12.60
2008,06,15,07,48,12.70
2008,06,15,07,49,12.80
2008,06,15,07,50,12.80
2008,06,15,07,51,12.90
2008,06,15,07,52,13.00
2008,06,15,07,53,13.00
2008,06,15,07,54,13.10
2008,06,15,07,55,13.10
2008,06,15,07,56,13.10
2008,06,15,07,57,13.20
2008,06,15,07,58,13.20
2008,06,15,07,59,13.20
2008,06,15,08,00,13.20
2008,06,15,08,01,13.20
2008,06,15,08,02,13.30
2008,06,15,08,03,13.30
2008,06,15,08,04,13.40
2008,06,15,08,05,13.40
2008,06,15,08,06,13.50
2008,06,15,08,07,13.50
2008,06,15,08,08,13.60
2008,06,15,08,09,13.60
2008,06,15,08,10,13.70
2008,06,15,08,11,13.80
2008,06,15,08,12,13.90
2008,06,15,08,13,13.90
2008,06,15,08,14,13.90
2008,06,15,08,15,13.80
2008,06,15,08,16,13.80
2008,06,15,08,17,13.80
2008,06,15,08,18,13.80
2008,06,15,08,19,13.80
2008,06,15,08,20,13.90
2008,06,15,08,21,13.90
2008,06,15,08,22,14.00
2008,06,15,08,23,14.10
2008,06,15,08,24,14.20
2008,06,15,08,25,14.20
2008,06,15,08,26,14.30
2008,06,15,08,27,14.40
2008,06,15,08,28,14.50
2008,06,15,08,29,14.50
2008,06,15,08,30,14.60
2008,06,15,08,31,14.60
2008,06,15,08,32,14.60
2008,06,15,08,33,14.70
2008,06,15,08,34,14.70
2008,06,15,08,35,14.80
2008,06,15,08,36,14.80
2008,06,15,08,37,14.80
2008,06,15,08,38,14.90
2008,06,15,08,39,15.00
2008,06,15,08,40,15.00
2008,06,15,08,41,15.00
2008,06,15,08,42,15.00
2008,06,15,08,43,15.00
2008,06,15,08,44,15.00
2008,06,15,08,45,15.00
2008,06,15,08,46,14.90
2008,06,15,08,47,14.80
2008,06,15,08,48,14.80
2008,06,15,08,49,14.80
2008,06,15,08,50,14.90
2008,06,15,08,51,15.00
2008,06,15,08,52,15.00
2008,06,15,08,53,15.00
2008,06,15,08,54,15.00
2008,06,15,08,55,15.00
2008,06,15,08,56,15.00
2008,06,15,08,57,15.00
2008,06,15,08,58,14.90
2008,06,15,08,59,15.00
2008,06,15,09,00,15.00
2008,06,15,09,01,15.00
2008,06,15,09,02,15.00
2008,06,15,09,03,15.00
2008,06,15,09,04,15.20
2008,06,15,09,05,15.20
2008,06,15,09,06,15.20
2008,06,15,09,07,15.20
2008,06,15,09,08,15.10
2008,06,15,09,09,15.10
2008,06,15,09,10,15.10
2008,06,15,09,11,15.10
2008,06,15,09,12,15.00
2008,06,15,09,13,15.00
2008,06,15,09,14,15.00
2008,06,15,09,15,15.00
2008,06,15,09,16,15.00
2008,06,15,09,17,15.00
2008,06,15,09,18,15.00
2008,06,15,09,19,15.00
2008,06,15,09,20,15.00
2008,06,15,09,21,15.00
2008,06,15,09,22,15.00
2008,06,15,09,23,15.00
2008,06,15,09,24,15.00
2008,06,15,09,25,15.00
2008,06,15,09,26,15.00
2008,06,15,09,27,15.10
2008,06,15,09,28,15.00
2008,06,15,09,29,15.00
2008,06,15,09,30,15.00
2008,06,15,09,31,15.10
2008,06,15,09,32,15.10
2008,06,15,09,33,15.10
2008,06,15,09,34,15.10
2008,06,15,09,35,15.00
2008,06,15,09,36,15.00
2008,06,15,09,37,15.00
2008,06,15,09,38,15.00
2008,06,15,09,39,15.00
2008,06,15,09,40,15.00
2008,06,15,09,41,15.00
2008,06,15,09,42,15.00
2008,06,15,09,43,15.00
2008,06,15,09,44,15.10
2008,06,15,09,45,15.20
2008,06,15,09,46,15.30
2008,06,15,09,47,15.30
2008,06,15,09,48,15.20
2008,06,15,09,49,15.20
2008,06,15,09,50,15.00
2008,06,15,09,51,15.00
2008,06,15,09,52,15.00
2008,06,15,09,53,15.00
2008,06,15,09,54,15.00
2008,06,15,09,55,15.00
2008,06,15,09,56,15.00
2008,06,15,09,57,15.20
2008,06,15,09,58,15.30
2008,06,15,09,59,15.30
2008,06,15,10,00,15.40
2008,06,15,10,01,15.40
2008,06,15,10,02,15.30
2008,06,15,10,03,15.30
2008,06,15,10,04,15.30
2008,06,15,10,05,15.30
2008,06,15,10,06,15.40
2008,06,15,10,07,15.50
2008,06,15,10,08,15.50
2008,06,15,10,09,15.50
2008,06,15,10,10,15.50
2008,06,15,10,11,15.60
2008,06,15,10,12,15.70
2008,06,15,10,13,15.70
2008,06,15,10,14,15.60
2008,06,15,10,15,15.60
2008,06,15,10,16,15.60
2008,06,15,10,17,15.60
2008,06,15,10,18,15.60
2008,06,15,10,19,15.50
2008,06,15,10,20,15.40
2008,06,15,10,21,15.30
2008,06,15,10,22,15.20
2008,06,15,10,23,15.10
2008,06,15,10,24,15.00
2008,06,15,10,25,15.00
2008,06,15,10,26,14.90
2008,06,15,10,27,14.80
2008,06,15,10,28,14.80
2008,06,15,10,29,14.80
2008,06,15,10,30,14.80
2008,06,15,10,31,14.80
2008,06,15,10,32,14.70
2008,06,15,10,33,14.70
2008,06,15,10,34,14.70
2008,06,15,10,35,14.70
2008,06,15,10,36,14.70
2008,06,15,10,37,14.70
2008,06,15,10,38,14.70
2008,06,15,10,39,14.60
2008,06,15,10,40,14.70
2008,06,15,10,41,14.70
2008,06,15,10,42,14.60
2008,06,15,10,43,14.60
2008,06,15,10,44,14.60
2008,06,15,10,45,14.70
2008,06,15,10,46,14.90
2008,06,15,10,47,15.00
2008,06,15,10,48,15.00
2008,06,15,10,49,15.00
2008,06,15,10,50,15.00
2008,06,15,10,51,14.90
2008,06,15,10,52,15.00
2008,06,15,10,53,15.00
2008,06,15,10,54,15.00
2008,06,15,10,55,15.00
2008,06,15,10,56,15.00
2008,06,15,10,57,15.10
2008,06,15,10,58,15.10
2008,06,15,10,59,15.00
2008,06,15,11,00,15.00
2008,06,15,11,01,15.00
2008,06,15,11,02,15.00
2008,06,15,11,03,15.20
2008,06,15,11,04,15.30
2008,06,15,11,05,15.40
2008,06,15,11,06,15.50
2008,06,15,11,07,15.50
2008,06,15,11,08,15.40
2008,06,15,11,09,15.30
2008,06,15,11,10,15.20
2008,06,15,11,11,15.20
2008,06,15,11,12,15.30
2008,06,15,11,13,15.30
2008,06,15,11,14,15.30
2008,06,15,11,15,15.30
2008,06,15,11,16,15.40
2008,06,15,11,17,15.50
2008,06,15,11,18,15.50
2008,06,15,11,19,15.40
2008,06,15,11,20,15.40
2008,06,15,11,21,15.40
2008,06,15,11,22,15.30
2008,06,15,11,23,15.30
2008,06,15,11,24,15.30
2008,06,15,11,25,15.40
2008,06,15,11,26,15.40
2008,06,15,11,27,15.40
2008,06,15,11,28,15.50
2008,06,15,11,29,15.50
2008,06,15,11,30,15.60
2008,06,15,11,31,15.60
2008,06,15,11,32,15.70
2008,06,15,11,33,15.70
2008,06,15,11,34,15.70
2008,06,15,11,35,15.70
2008,06,15,11,36,15.80
2008,06,15,11,37,16.00
2008,06,15,11,38,16.10
2008,06,15,11,39,16.20
2008,06,15,11,40,16.30
2008,06,15,11,41,16.30
2008,06,15,11,42,16.30
2008,06,15,11,43,16.30
2008,06,15,11,44,16.30
2008,06,15,11,45,16.40
2008,06,15,11,46,16.50
2008,06,15,11,47,16.50
2008,06,15,11,48,16.60
2008,06,15,11,49,16.50
2008,06,15,11,50,16.50
2008,06,15,11,51,16.60
2008,06,15,11,52,16.50
2008,06,15,11,53,16.50
2008,06,15,11,54,16.50
2008,06,15,11,55,16.40
2008,06,15,11,56,16.30
2008,06,15,11,57,16.10
2008,06,15,11,58,16.10
2008,06,15,11,59,16.10
2008,06,15,12,00,16.10
2008,06,15,12,01,16.00
2008,06,15,12,02,16.00
2008,06,15,12,03,15.90
2008,06,15,12,04,15.90
2008,06,15,12,05,16.00
2008,06,15,12,06,16.20
2008,06,15,12,07,16.30
2008,06,15,12,08,16.40
2008,06,15,12,09,16.40
2008,06,15,12,10,16.40
2008,06,15,12,11,16.50
2008,06,15,12,12,16.60
2008,06,15,12,13,16.60
2008,06,15,12,14,16.70
2008,06,15,12,15,16.90
2008,06,15,12,16,16.90
2008,06,15,12,17,16.80
2008,06,15,12,18,16.80
2008,06,15,12,19,16.80
2008,06,15,12,20,16.80
2008,06,15,12,21,16.80
2008,06,15,12,22,16.80
2008,06,15,12,23,16.80
2008,06,15,12,24,16.90
2008,06,15,12,25,16.90
2008,06,15,12,26,17.00
2008,06,15,12,27,17.10
2008,06,15,12,28,16.90
2008,06,15,12,29,16.80
2008,06,15,12,30,16.70
2008,06,15,12,31,16.70
2008,06,15,12,32,16.60
2008,06,15,12,33,16.60
2008,06,15,12,34,16.50
2008,06,15,12,35,16.50
2008,06,15,12,36,16.60
2008,06,15,12,37,16.70
2008,06,15,12,38,16.80
2008,06,15,12,39,16.80
2008,06,15,12,40,16.90
2008,06,15,12,41,16.90
2008,06,15,12,42,17.00
2008,06,15,12,43,17.10
2008,06,15,12,44,17.10
2008,06,15,12,45,17.10
2008,06,15,12,46,17.10
2008,06,15,12,47,17.10
2008,06,15,12,48,17.00
2008,06,15,12,49,16.90
2008,06,15,12,50,16.90
2008,06,15,12,51,16.90
2008,06,15,12,52,17.00
2008,06,15,12,53,17.10
2008,06,15,12,54,17.20
2008,06,15,12,55,17.20
2008,06,15,12,56,17.20
2008,06,15,12,57,17.30
2008,06,15,12,58,17.20
2008,06,15,12,59,17.20
2008,06,15,13,00,17.20
2008,06,15,13,01,17.10
2008,06,15,13,02,17.20
2008,06,15,13,03,17.20
2008,06,15,13,04,17.20
2008,06,15,13,05,17.20
2008,06,15,13,06,17.10
2008,06,15,13,07,17.00
2008,06,15,13,08,17.00
2008,06,15,13,09,17.00
2008,06,15,13,10,17.00
2008,06,15,13,11,17.00
2008,06,15,13,12,17.00
2008,06,15,13,13,17.10
2008,06,15,13,14,17.20
2008,06,15,13,15,17.30
2008,06,15,13,16,17.30
2008,06,15,13,17,17.30
2008,06,15,13,18,17.30
2008,06,15,13,19,17.30
2008,06,15,13,20,17.30
2008,06,15,13,21,17.30
2008,06,15,13,22,17.30
2008,06,15,13,23,17.40
2008,06,15,13,24,17.40
2008,06,15,13,25,17.40
2008,06,15,13,26,17.30
2008,06,15,13,27,17.30
2008,06,15,13,28,17.20
2008,06,15,13,29,17.20
2008,06,15,13,30,17.20
2008,06,15,13,31,17.20
2008,06,15,13,32,17.30
2008,06,15,13,33,17.40
2008,06,15,13,34,17.40
2008,06,15,13,35,17.40
2008,06,15,13,36,17.50
2008,06,15,13,37,17.50
2008,06,15,13,38,17.60
2008,06,15,13,39,17.60
2008,06,15,13,40,17.60
2008,06,15,13,41,17.50
2008,06,15,13,42,17.30
2008,06,15,13,43,17.20
2008,06,15,13,44,17.20
2008,06,15,13,45,17.20
2008,06,15,13,46,17.20
2008,06,15,13,47,17.10
2008,06,15,13,48,17.00
2008,06,15,13,49,17.00
2008,06,15,13,50,16.90
2008,06,15,13,51,17.00
2008,06,15,13,52,17.10
2008,06,15,13,53,17.10
2008,06,15,13,54,17.10
2008,06,15,13,55,17.20
2008,06,15,13,56,17.20
2008,06,15,13,57,17.10
2008,06,15,13,58,17.10
2008,06,15,13,59,17.10
2008,06,15,14,00,17.10
2008,06,15,14,01,17.10
2008,06,15,14,02,17.10
2008,06,15,14,03,17.20
2008,06,15,14,04,17.20
2008,06,15,14,05,17.10
2008,06,15,14,06,17.00
2008,06,15,14,07,16.90
2008,06,15,14,08,16.90
2008,06,15,14,09,16.90
2008,06,15,14,10,17.00
2008,06,15,14,11,17.10
2008,06,15,14,12,17.10
2008,06,15,14,13,17.10
2008,06,15,14,14,17.20
2008,06,15,14,15,17.20
2008,06,15,14,16,17.20
2008,06,15,14,17,17.20
2008,06,15,14,18,17.20
2008,06,15,14,19,17.20
2008,06,15,14,20,17.20
2008,06,15,14,21,17.30
2008,06,15,14,22,17.40
2008,06,15,14,23,17.50
2008,06,15,14,24,17.50
2008,06,15,14,25,17.50
2008,06,15,14,26,17.40
2008,06,15,14,27,17.30
2008,06,15,14,28,17.20
2008,06,15,14,29,17.00
2008,06,15,14,30,16.80
2008,06,15,14,31,16.70
2008,06,15,14,32,16.70
2008,06,15,14,33,16.70
2008,06,15,14,34,16.60
2008,06,15,14,35,16.60
2008,06,15,14,36,16.60
2008,06,15,14,37,16.70
2008,06,15,14,38,16.70
2008,06,15,14,39,16.70
2008,06,15,14,40,16.70
2008,06,15,14,41,16.70
2008,06,15,14,42,16.70
2008,06,15,14,43,16.80
2008,06,15,14,44,16.80
2008,06,15,14,45,16.90
2008,06,15,14,46,16.80
2008,06,15,14,47,16.80
2008,06,15,14,48,16.80
2008,06,15,14,49,16.80
2008,06,15,14,50,16.80
2008,06,15,14,51,16.80
2008,06,15,14,52,16.80
2008,06,15,14,53,16.90
2008,06,15,14,54,16.80
2008,06,15,14,55,16.80
2008,06,15,14,56,16.80
2008,06,15,14,57,16.80
2008,06,15,14,58,16.80
2008,06,15,14,59,16.80
2008,06,15,15,00,16.70
2008,06,15,15,01,16.70
2008,06,15,15,02,16.60
2008,06,15,15,03,16.50
2008,06,15,15,04,16.30
2008,06,15,15,05,16.10
2008,06,15,15,06,15.90
2008,06,15,15,07,15.80
2008,06,15,15,08,15.80
2008,06,15,15,09,15.80
2008,06,15,15,10,15.70
2008,06,15,15,11,15.80
2008,06,15,15,12,15.80
2008,06,15,15,13,15.80
2008,06,15,15,14,15.80
2008,06,15,15,15,15.70
2008,06,15,15,16,15.60
2008,06,15,15,17,15.60
2008,06,15,15,18,15.60
2008,06,15,15,19,15.60
2008,06,15,15,20,15.70
2008,06,15,15,21,15.70
2008,06,15,15,22,15.70
2008,06,15,15,23,15.60
2008,06,15,15,24,15.50
2008,06,15,15,25,15.30
2008,06,15,15,26,15.20
2008,06,15,15,27,15.20
2008,06,15,15,28,15.20
2008,06,15,15,29,15.10
2008,06,15,15,30,15.00
2008,06,15,15,31,15.00
2008,06,15,15,32,15.00
2008,06,15,15,33,15.00
2008,06,15,15,34,15.00
2008,06,15,15,35,15.00
2008,06,15,15,36,15.00
2008,06,15,15,37,15.00
2008,06,15,15,38,15.00
2008,06,15,15,39,14.90
2008,06,15,15,40,14.80
2008,06,15,15,41,14.70
2008,06,15,15,42,14.70
2008,06,15,15,43,14.70
2008,06,15,15,44,14.70
2008,06,15,15,45,14.80
2008,06,15,15,46,14.80
2008,06,15,15,47,14.90
2008,06,15,15,48,15.00
2008,06,15,15,49,14.90
2008,06,15,15,50,14.90
2008,06,15,15,51,14.80
2008,06,15,15,52,14.80
2008,06,15,15,53,14.80
2008,06,15,15,54,14.90
2008,06,15,15,55,14.90
2008,06,15,15,56,15.00
2008,06,15,15,57,15.00
2008,06,15,15,58,15.00
2008,06,15,15,59,15.00
2008,06,15,16,00,15.00
2008,06,15,16,01,15.00
2008,06,15,16,02,15.20
2008,06,15,16,03,15.30
2008,06,15,16,04,15.30
2008,06,15,16,05,15.40
2008,06,15,16,06,15.40
2008,06,15,16,07,15.40
2008,06,15,16,08,15.40
2008,06,15,16,09,15.40
2008,06,15,16,10,15.50
2008,06,15,16,11,15.60
2008,06,15,16,12,15.60
2008,06,15,16,13,15.70
2008,06,15,16,14,15.70
2008,06,15,16,15,15.80
2008,06,15,16,16,15.90
2008,06,15,16,17,16.10
2008,06,15,16,18,16.20
2008,06,15,16,19,16.30
2008,06,15,16,20,16.40
2008,06,15,16,21,16.50
2008,06,15,16,22,16.60
2008,06,15,16,23,16.60
2008,06,15,16,24,16.50
2008,06,15,16,25,16.50
2008,06,15,16,26,16.40
2008,06,15,16,27,16.30
2008,06,15,16,28,16.30
2008,06,15,16,29,16.30
2008,06,15,16,30,16.30
2008,06,15,16,31,16.20
2008,06,15,16,32,16.10
2008,06,15,16,33,16.10
2008,06,15,16,34,16.10
2008,06,15,16,35,16.10
2008,06,15,16,36,16.10
2008,06,15,16,37,16.10
2008,06,15,16,38,16.10
2008,06,15,16,39,16.10
2008,06,15,16,40,16.00
2008,06,15,16,41,16.00
2008,06,15,16,42,16.10
2008,06,15,16,43,16.10
2008,06,15,16,44,16.10
2008,06,15,16,45,16.20
2008,06,15,16,46,16.20
2008,06,15,16,47,16.30
2008,06,15,16,48,16.30
2008,06,15,16,49,16.30
2008,06,15,16,50,16.30
2008,06,15,16,51,16.20
2008,06,15,16,52,16.20
2008,06,15,16,53,16.10
2008,06,15,16,54,15.90
2008,06,15,16,55,15.80
2008,06,15,16,56,15.70
2008,06,15,16,57,15.60
2008,06,15,16,58,15.60
2008,06,15,16,59,15.60
2008,06,15,17,00,15.60
2008,06,15,17,01,15.60
2008,06,15,17,02,15.60
2008,06,15,17,03,15.60
2008,06,15,17,04,15.70
2008,06,15,17,05,15.70
2008,06,15,17,06,15.80
2008,06,15,17,07,15.90
2008,06,15,17,08,16.00
2008,06,15,17,09,16.10
2008,06,15,17,10,16.10
2008,06,15,17,11,16.10
2008,06,15,17,12,16.20
2008,06,15,17,13,16.20
2008,06,15,17,14,16.30
2008,06,15,17,15,16.30
2008,06,15,17,16,16.40
2008,06,15,17,17,16.30
2008,06,15,17,18,16.20
2008,06,15,17,19,16.20
2008,06,15,17,20,16.10
2008,06,15,17,21,15.90
2008,06,15,17,22,15.70
2008,06,15,17,23,15.50
2008,06,15,17,24,15.40
2008,06,15,17,25,15.30
2008,06,15,17,26,15.20
2008,06,15,17,27,15.10
2008,06,15,17,28,15.00
2008,06,15,17,29,15.00
2008,06,15,17,30,15.00
2008,06,15,17,31,14.80
2008,06,15,17,32,14.70
2008,06,15,17,33,14.80
2008,06,15,17,34,14.80
2008,06,15,17,35,14.80
2008,06,15,17,36,14.80
2008,06,15,17,37,14.70
2008,06,15,17,38,14.70